Weather History for Albany, GA

Change the Weather History Date:

Thursday, July 18, 2013

  Actual Average Record
Temperature  
Mean Temperature 81 °F 83 °F  
Max Temperature 91 °F 93 °F 104 °F (1981)
Min Temperature 71 °F 72 °F 64 °F (1993)
Degree Days  
Heating Degree Days 0 0  
Month to date heating degree days 0 0  
Since 1 June heating degree days 0 0  
Since 1 July heating degree days 0 0  
Cooling Degree Days 16 18  
Month to date cooling degree days 272 312  
Year to date cooling degree days 1108 1217  
Since 1 June cooling degree days 753 777  
Growing Degree Days 31 (Base 50)    
Moisture  
Dew Point 71 °F    
Average Humidity 73    
Maximum Humidity 93    
Minimum Humidity 52    
Precipitation  
Precipitation 0.01 in - 0.19 in (2005)
Month to date precipitation 5.58  
Year to date precipitation 29.29  
Sea Level Pressure  
Sea Level Pressure 30.13 in    
Wind  
Wind Speed 4 mph (ESE)    
Max Wind Speed 14 mph    
Max Gust Speed 23 mph    
Visibility 10 miles    
Events      
T = Trace of Precipitation, MM = Missing Value Source: NWS Daily Summary

Daily Weather History Graph

Daily Weather History Graph

Search for Another Location

Airport:

Trip Planner

Search our weather history database for the weather conditions in past years. The results will help you decide how hot, cold, wet, or windy it might be!

Date:

Astronomy

Jul. 18, 2013 Rise Set
Actual Time 6:44 AM EDT 8:41 PM EDT
Civil Twilight 6:17 AM EDT 9:08 PM EDT
Nautical Twilight 5:44 AM EDT 9:41 PM EDT
Astronomical Twilight 5:08 AM EDT 10:16 PM EDT
Moon 4:39 PM EDT (7/18) 2:30 AM EDT (7/18)
Length of Visible Light 14h 51m
Length of Day
13h 57m
Waxing Gibbous, 77% of the Moon is Illuminated
Jul 18
Waxing Gibbous
Jul 22
Full
Jul 29
Last Quarter
Aug 6
New
Aug 14
First Quarter

Hourly Weather History & Observations

Time (EDT) Temp. Heat Index Dew Point Humidity Pressure Visibility Wind Dir Wind Speed Gust Speed Precip Events Conditions
12:53 AM 75.9 °F - 69.1 °F 79% 30.19 in 10.0 mi NE 15.0 mph 20.7 mph N/A   Mostly Cloudy
1:53 AM 73.0 °F - 70.0 °F 90% 30.18 in 10.0 mi NE 6.9 mph - 0.01 in   Clear
2:53 AM 73.0 °F - 70.0 °F 90% 30.18 in 10.0 mi North 3.5 mph - N/A   Clear
3:53 AM 72.0 °F - 70.0 °F 93% 30.14 in 10.0 mi Calm Calm - N/A   Clear
4:53 AM 72.0 °F - 70.0 °F 93% 30.12 in 10.0 mi East 5.8 mph - N/A   Clear
5:53 AM 71.1 °F - 69.1 °F 93% 30.12 in 10.0 mi NE 4.6 mph - N/A   Clear
6:53 AM 71.1 °F - 69.1 °F 93% 30.13 in 10.0 mi ENE 4.6 mph - N/A   Clear
7:53 AM 73.9 °F - 70.0 °F 87% 30.15 in 10.0 mi NE 5.8 mph - N/A   Clear
8:53 AM 77.0 °F - 71.1 °F 82% 30.18 in 10.0 mi Calm Calm - N/A   Clear
9:53 AM 80.1 °F 83.8 °F 72.0 °F 76% 30.18 in 10.0 mi ESE 3.5 mph - N/A   Clear
10:53 AM 82.9 °F 88.8 °F 73.0 °F 72% 30.18 in 10.0 mi SE 4.6 mph - N/A   Scattered Clouds
11:25 AM 82.4 °F 88.2 °F 73.4 °F 74% 30.18 in 10.0 mi Variable 4.6 mph - N/A   Mostly Cloudy
11:53 AM 84.0 °F 90.2 °F 73.0 °F 69% 30.17 in 10.0 mi SSE 5.8 mph - N/A   Mostly Cloudy
12:00 PM 84.2 °F 89.6 °F 71.6 °F 66% 30.18 in 10.0 mi SSE 4.6 mph - N/A   Mostly Cloudy
12:53 PM 86.0 °F 92.2 °F 72.0 °F 63% 30.18 in 10.0 mi Calm Calm - N/A   Mostly Cloudy
1:53 PM 88.0 °F 94.7 °F 72.0 °F 59% 30.16 in 10.0 mi East 5.8 mph - N/A   Mostly Cloudy
2:53 PM 89.1 °F 95.0 °F 71.1 °F 55% 30.13 in 10.0 mi South 5.8 mph - N/A   Mostly Cloudy
3:53 PM 91.0 °F 97.6 °F 71.1 °F 52% 30.10 in 10.0 mi SE 6.9 mph - N/A   Mostly Cloudy
3:59 PM 89.6 °F 94.7 °F 69.8 °F 52% 30.10 in 10.0 mi East 6.9 mph - N/A   Mostly Cloudy
4:53 PM 90.0 °F 94.5 °F 69.1 °F 50% 30.08 in 10.0 mi ESE 4.6 mph - N/A   Mostly Cloudy
5:53 PM 90.0 °F 95.4 °F 70.0 °F 52% 30.06 in 10.0 mi East 6.9 mph - N/A   Scattered Clouds
6:53 PM 88.0 °F 92.1 °F 69.1 °F 53% 30.06 in 10.0 mi SSE 6.9 mph - N/A   Scattered Clouds
7:53 PM 86.0 °F 91.5 °F 71.1 °F 61% 30.06 in 10.0 mi SSE 5.8 mph - N/A   Clear
8:53 PM 84.0 °F 89.6 °F 72.0 °F 67% 30.08 in 10.0 mi Calm Calm - N/A   Clear
9:53 PM 79.0 °F - 73.0 °F 82% 30.10 in 10.0 mi Calm Calm - N/A   Clear
10:53 PM 78.1 °F - 73.0 °F 84% 30.11 in 10.0 mi Calm Calm - N/A   Clear
11:53 PM 75.9 °F - 72.0 °F 87% 30.12 in 10.0 mi Calm Calm - N/A   Clear